W5ZYX Weather Reports


Display with metric or nautical units.
time (UTC)temp
F
wind
direction
speed
MPH
gust
MPH
rain 1hr
in
rain 24hr
in
rain mn
in
humidity
%
barometer
mb
20260507201039 69 5 7.0 14.0 0.00 0.00 0.00 68 1016.9
20260507200538 69 17 9.0 14.0 0.00 0.00 0.00 68 1017.0
20260507200051 69 37 7.0 14.0 0.00 0.00 0.00 71 1017.0
20260507195536 68 355 9.0 14.0 0.00 0.00 0.00 70 1017.6
20260507195038 68 36 8.0 13.0 0.00 0.00 0.00 69 1016.4
20260507194549 68 60 6.0 16.0 0.00 0.00 0.00 69 1016.5
20260507194036 68 41 9.0 16.0 0.00 0.00 0.00 69 1016.8
20260507193537 68 17 7.0 15.0 0.00 0.00 0.00 70 1016.7
20260507193049 68 53 10.0 15.0 0.00 0.00 0.00 69 1016.4
20260507192536 68 34 9.0 14.0 0.00 0.00 0.00 71 1017.0
20260507192036 67 39 7.0 10.0 0.00 0.00 0.00 72 1017.4
20260507191555 67 40 5.0 12.0 0.00 0.00 0.00 70 1017.3
20260507191035 67 47 6.0 12.0 0.00 0.00 0.00 72 1017.5
20260507190536 67 34 6.0 12.0 0.00 0.00 0.00 72 1017.7
20260507190052 67 348 8.0 12.0 0.00 0.00 0.00 72 1017.9
20260507185535 66 32 7.0 10.0 0.00 0.00 0.00 73 1017.7
20260507185038 66 11 2.0 10.0 0.00 0.00 0.00 74 1017.5
20260507184542 66 360 8.0 10.0 0.00 0.00 0.00 73 1017.3
20260507184036 66 5 7.0 11.0 0.00 0.00 0.00 74 1017.8
20260507183536 66 340 7.0 11.0 0.00 0.00 0.00 73 1018.4
20260507183055 66 314 4.0 13.0 0.00 0.00 0.00 73 1018.2
20260507182537 66 326 7.0 13.0 0.00 0.00 0.00 72 1018.1
20260507182037 66 15 7.0 13.0 0.00 0.00 0.00 73 1018.0
20260507181549 66 350 7.0 13.0 0.00 0.00 0.00 73 1018.1
20260507181036 66 21 5.0 12.0 0.00 0.00 0.00 71 1017.4
20260507180538 66 45 5.0 16.0 0.00 0.00 0.00 73 1017.6
20260507180053 66 40 9.0 15.0 0.00 0.00 0.00 73 1017.6
20260507175536 65 10 8.0 14.0 0.00 0.00 0.00 73 1017.7
20260507175036 66 30 6.0 14.0 0.00 0.00 0.00 73 1017.5
20260507174551 66 15 5.0 14.0 0.00 0.00 0.00 74 1017.6
20260507174036 65 22 9.0 13.0 0.00 0.00 0.00 74 1018.2
20260507173539 64 360 5.0 10.0 0.00 0.00 0.00 73 1018.1
20260507173058 64 46 5.0 10.0 0.00 0.00 0.00 75 1018.1
20260507172539 64 339 6.0 10.0 0.00 0.00 0.00 73 1018.3
20260507172040 65 333 5.0 12.0 0.00 0.00 0.00 74 1018.2
20260507171554 64 344 6.0 12.0 0.00 0.00 0.00 75 1018.5
20260507171035 64 338 6.0 11.0 0.00 0.00 0.00 75 1018.3
20260507170537 63 355 7.0 12.0 0.00 0.00 0.00 74 1018.5
20260507170054 63 336 7.0 11.0 0.00 0.00 0.00 75 1018.3
20260507165539 63 5 7.0 11.0 0.00 0.00 0.00 75 1018.4
20260507165037 63 336 5.0 12.0 0.00 0.00 0.00 75 1018.7
20260507164548 63 360 6.0 13.0 0.00 0.00 0.00 75 1018.6
20260507164038 63 355 8.0 13.0 0.00 0.00 0.00 74 1018.7
20260507163536 63 43 6.0 13.0 0.00 0.00 0.00 74 1018.5
20260507163048 63 21 5.0 12.0 0.00 0.00 0.00 74 1018.3
20260507162539 63 34 6.0 13.0 0.00 0.00 0.00 75 1018.2
20260507162035 63 22 9.0 13.0 0.00 0.00 0.00 74 1018.3
20260507161552 63 50 8.0 14.0 0.00 0.00 0.00 77 1018.1
20260507161035 62 360 8.0 13.0 0.00 0.00 0.00 76 1018.0
20260507160538 62 41 7.0 15.0 0.00 0.00 0.00 76 1018.2
20260507160053 62 44 8.0 15.0 0.00 0.00 0.00 75 1018.2
20260507155535 62 360 9.0 15.0 0.00 0.00 0.00 77 1017.9
20260507155042 62 9 7.0 16.0 0.00 0.00 0.00 78 1017.7
20260507154552 61 22 10.0 16.0 0.00 0.00 0.00 77 1017.6
20260507154036 61 13 10.0 16.0 0.00 0.00 0.00 77 1017.6
20260507153535 61 35 9.0 15.0 0.00 0.00 0.00 78 1017.7
20260507153054 61 13 9.0 16.0 0.00 0.00 0.00 78 1018.0
20260507152535 60 17 11.0 16.0 0.00 0.00 0.00 78 1018.3
20260507152036 61 34 10.0 18.0 0.00 0.00 0.00 77 1018.4
20260507151548 61 26 11.0 18.0 0.00 0.00 0.00 77 1018.4
20260507151037 61 5 11.0 17.0 0.00 0.00 0.00 78 1018.6
20260507150535 60 5 11.0 17.0 0.00 0.00 0.00 79 1018.5
20260507150050 60 22 9.0 16.0 0.00 0.00 0.00 79 1018.4
20260507145538 60 28 8.0 15.0 0.00 0.00 0.00 80 1018.4
20260507145038 59 350 10.0 15.0 0.00 0.00 0.00 80 1018.5
20260507144553 59 38 8.0 15.0 0.00 0.00 0.00 80 1018.5
20260507144036 59 44 9.0 15.0 0.00 0.00 0.00 81 1018.5
20260507143535 58 9 10.0 15.0 0.00 0.00 0.00 80 1018.4
20260507143059 58 27 10.0 16.0 0.00 0.00 0.00 80 1018.4
20260507142537 59 11 11.0 16.0 0.00 0.00 0.00 80 1018.5
20260507142037 59 25 11.0 18.0 0.00 0.00 0.00 81 1018.8
20260507141551 59 19 10.0 18.0 0.00 0.00 0.00 81 1018.9
20260507141037 59 360 9.0 18.0 0.00 0.00 0.00 81 1019.2
20260507140539 59 32 10.0 15.0 0.00 0.00 0.00 81 1019.3
20260507140056 59 45 10.0 16.0 0.00 0.00 0.00 81 1019.1
20260507135537 59 18 10.0 16.0 0.00 0.00 0.00 81 1018.7
20260507135037 58 9 9.0 17.0 0.00 0.00 0.00 82 1018.5
20260507134550 58 16 10.0 17.0 0.00 0.00 0.00 82 1018.4
20260507134036 58 13 12.0 16.0 0.00 0.00 0.00 81 1018.4
20260507133537 58 21 11.0 16.0 0.00 0.00 0.00 82 1018.6
20260507133054 58 12 10.0 14.0 0.00 0.00 0.00 83 1018.9
20260507132536 58 352 6.0 11.0 0.00 0.00 0.00 83 1018.8
20260507132037 58 352 7.0 14.0 0.00 0.00 0.00 84 1018.8
20260507131552 58 28 9.0 14.0 0.00 0.00 0.00 84 1018.8
20260507131037 57 355 6.0 12.0 0.00 0.00 0.00 85 1018.6
20260507130537 57 9 5.0 13.0 0.00 0.00 0.00 85 1018.4
20260507130104 57 22 7.0 13.0 0.00 0.00 0.00 85 1018.4
20260507125537 57 19 9.0 13.0 0.00 0.00 0.00 84 1018.2
20260507125037 57 16 7.0 15.0 0.00 0.00 0.00 86 1018.3
20260507124556 57 12 7.0 15.0 0.00 0.00 0.00 86 1018.2
20260507124037 57 331 6.0 12.0 0.00 0.00 0.00 87 1018.4
20260507123537 57 360 8.0 12.0 0.00 0.00 0.00 87 1018.5
20260507123050 57 360 5.0 12.0 0.00 0.00 0.00 87 1018.7
20260507122536 57 352 7.0 12.0 0.00 0.00 0.00 87 1018.4
20260507122039 57 327 6.0 13.0 0.00 0.00 0.00 87 1018.0
20260507121556 57 14 7.0 13.0 0.00 0.00 0.00 88 1017.6
20260507121037 57 360 8.0 15.0 0.00 0.00 0.00 88 1017.4
20260507120537 57 32 10.0 14.0 0.00 0.00 0.00 88 1017.1
20260507120050 57 5 9.0 14.0 0.00 0.00 0.00 89 1017.3
20260507115539 57 355 6.0 14.0 0.00 0.00 0.00 89 1017.4
20260507115037 57 5 8.0 13.0 0.00 0.00 0.00 89 1017.5
20260507114550 57 351 8.0 11.0 0.00 0.00 0.00 89 1017.4
20260507114037 57 5 7.0 14.0 0.00 0.00 0.00 89 1017.5
20260507113539 57 22 9.0 14.0 0.00 0.00 0.00 89 1016.9
20260507113052 57 17 8.0 12.0 0.00 0.00 0.00 89 1017.2
20260507112537 57 360 7.0 13.0 0.00 0.00 0.00 89 1017.3
20260507112037 57 5 8.0 13.0 0.00 0.00 0.00 89 1017.0
20260507111553 57 360 8.0 13.0 0.00 0.00 0.00 89 1017.3
20260507111037 57 355 5.0 13.0 0.00 0.00 0.00 89 1017.6
20260507110538 57 349 9.0 13.0 0.00 0.00 0.00 89 1017.3
20260507110058 57 360 8.0 13.0 0.00 0.00 0.00 89 1017.5
20260507105539 57 5 6.0 12.0 0.00 0.00 0.00 89 1017.3
20260507105037 58 16 7.0 12.0 0.00 0.00 0.00 89 1017.1
20260507104552 58 11 6.0 11.0 0.00 0.00 0.00 89 1017.1
20260507104038 58 348 5.0 13.0 0.00 0.00 0.00 90 1016.9
20260507103539 58 5 7.0 13.0 0.00 0.00 0.00 90 1016.7
20260507103117 58 22 7.0 13.0 0.00 0.00 0.00 89 1016.8
20260507102536 58 16 7.0 12.0 0.00 0.00 0.00 90 1016.6
20260507102037 58 33 5.0 11.0 0.00 0.00 0.00 90 1016.5
20260507101550 58 352 7.0 14.0 0.00 0.00 0.00 90 1016.7
20260507101037 58 35 6.0 14.0 0.00 0.00 0.00 90 1015.9
20260507100538 58 18 8.0 13.0 0.00 0.00 0.00 90 1015.7
20260507100103 58 38 6.0 13.0 0.00 0.00 0.00 90 1016.0
20260507095537 58 10 6.0 13.0 0.00 0.00 0.00 90 1016.4
20260507095036 58 5 7.0 13.0 0.00 0.00 0.00 90 1016.0
20260507094552 58 24 7.0 11.0 0.00 0.00 0.00 90 1015.7
20260507094037 58 5 5.0 13.0 0.00 0.00 0.00 91 1015.9
20260507093539 58 19 5.0 13.0 0.00 0.00 0.00 90 1015.5
20260507093050 58 50 6.0 11.0 0.00 0.00 0.00 90 1015.1
20260507092538 58 39 7.0 12.0 0.00 0.00 0.00 90 1015.0
20260507092038 58 49 6.0 12.0 0.00 0.00 0.00 91 1014.8
20260507091548 58 13 6.0 10.0 0.00 0.00 0.00 90 1015.2
20260507091039 58 33 5.0 12.0 0.00 0.00 0.00 90 1015.3
20260507090538 58 355 8.0 12.0 0.00 0.00 0.00 90 1015.4
20260507090055 58 51 7.0 12.0 0.00 0.00 0.00 90 1014.4
20260507085537 59 33 8.0 12.0 0.00 0.00 0.00 90 1015.1
20260507085037 59 25 6.0 11.0 0.00 0.00 0.00 90 1015.0
20260507084603 59 63 5.0 12.0 0.00 0.00 0.00 90 1015.1
20260507084038 59 51 5.0 12.0 0.00 0.00 0.00 91 1014.9
20260507083537 59 56 4.0 11.0 0.00 0.00 0.00 90 1015.1
20260507083051 59 49 5.0 11.0 0.00 0.00 0.00 90 1015.4
20260507082537 59 49 7.0 15.0 0.00 0.00 0.00 90 1015.4
20260507082037 59 38 8.0 16.0 0.00 0.00 0.00 90 1015.1
20260507081547 59 5 10.0 16.0 0.00 0.00 0.00 90 1015.0
20260507081037 59 12 9.0 14.0 0.00 0.00 0.00 90 1015.1
20260507080539 59 106 10.0 14.0 0.00 0.00 0.00 90 1014.3
20260507080056 60 40 10.0 14.0 0.00 0.00 0.00 90 1014.9
20260507075538 60 46 9.0 14.0 0.00 0.00 0.00 90 1015.3
20260507075037 60 42 8.0 13.0 0.00 0.00 0.00 90 1015.4
20260507074555 60 68 9.0 13.0 0.00 0.00 0.00 90 1015.5
20260507074037 60 22 8.0 15.0 0.00 0.00 0.00 90 1015.3
20260507073537 60 52 9.0 15.0 0.00 0.00 0.00 90 1015.5
20260507073051 60 35 8.0 16.0 0.00 0.00 0.00 90 1015.5
20260507072537 60 36 10.0 16.0 0.00 0.00 0.00 90 1015.5
20260507072037 60 50 9.0 14.0 0.00 0.00 0.00 90 1015.5
20260507071550 61 24 10.0 14.0 0.00 0.00 0.00 90 1015.6
20260507071037 61 36 9.0 16.0 0.00 0.00 0.00 90 1015.5
20260507070538 61 28 10.0 16.0 0.00 0.00 0.00 90 1015.5
20260507070103 61 46 10.0 15.0 0.00 0.00 0.00 90 1015.4
20260507065537 61 24 7.0 12.0 0.00 0.00 0.00 91 1015.7
20260507065036 61 360 6.0 12.0 0.00 0.00 0.00 91 1015.8
20260507064554 61 24 7.0 12.0 0.00 0.00 0.00 91 1015.9
20260507064036 61 17 6.0 12.0 0.00 0.00 0.00 91 1016.1
20260507063537 61 350 7.0 14.0 0.00 0.00 0.00 91 1016.1
20260507063051 61 324 9.0 14.0 0.00 0.00 0.00 91 1015.6
20260507062536 61 355 9.0 13.0 0.00 0.00 0.00 91 1015.4
20260507062036 61 9 8.0 13.0 0.00 0.00 0.00 91 1015.6
20260507061549 61 360 5.0 12.0 0.00 0.00 0.00 91 1015.8
20260507061036 61 348 8.0 12.0 0.00 0.00 0.00 91 1015.8
20260507060536 61 5 5.0 11.0 0.00 0.00 0.00 91 1015.7
20260507060052 61 360 6.0 14.0 0.00 0.00 0.00 90 1015.7
20260507055536 61 5 9.0 14.0 0.00 0.00 0.00 91 1015.8
20260507055035 61 341 8.0 14.0 0.00 0.00 0.00 90 1015.8
20260507054606 61 5 6.0 14.0 0.00 0.00 0.00 90 1015.9
20260507054040 61 360 8.0 15.0 0.00 0.00 0.00 90 1015.6
20260507053539 61 360 7.0 15.0 0.00 0.00 0.00 90 1015.5
20260507053056 61 360 10.0 15.0 0.00 0.00 0.00 90 1015.6
20260507052536 61 342 9.0 13.0 0.00 0.00 0.00 90 1016.0
20260507052036 61 351 6.0 12.0 0.00 0.00 0.00 90 1015.9
20260507051551 61 350 6.0 13.0 0.00 0.00 0.00 90 1015.9
20260507051036 61 352 6.0 13.0 0.00 0.00 0.00 89 1015.9
20260507050535 61 344 7.0 13.0 0.00 0.00 0.00 89 1015.6
20260507050051 61 338 7.0 13.0 0.00 0.00 0.00 89 1015.5
20260507045536 61 360 7.0 15.0 0.00 0.00 0.00 89 1015.5
20260507045034 61 5 9.0 15.0 0.00 0.00 0.00 89 1015.5
20260507044554 62 360 8.0 14.0 0.00 0.00 0.00 89 1015.7
20260507044035 62 5 10.0 14.0 0.00 0.00 0.00 89 1015.7
20260507043535 62 327 6.0 14.0 0.00 0.00 0.00 89 1015.7
20260507043047 62 355 7.0 14.0 0.00 0.00 0.00 88 1015.8
20260507042536 62 338 5.0 10.0 0.00 0.00 0.00 88 1015.6
20260507042037 62 327 3.0 13.0 0.00 0.00 0.00 88 1015.5
20260507041559 62 355 6.0 14.0 0.00 0.00 0.00 88 1015.3
20260507041038 62 352 9.0 14.0 0.00 0.00 0.00 88 1015.5
20260507040539 62 352 7.0 14.0 0.00 0.00 0.00 88 1015.5
20260507040052 62 360 7.0 12.0 0.00 0.00 0.00 88 1015.4
20260507035535 62 348 7.0 11.0 0.00 0.00 0.00 88 1015.7
20260507035035 62 350 6.0 10.0 0.00 0.00 0.00 88 1015.5
20260507034549 62 9 4.0 9.0 0.00 0.00 0.00 88 1015.5
20260507034035 62 5 5.0 12.0 0.00 0.00 0.00 87 1015.4
20260507033538 62 0 7.0 12.0 0.00 0.00 0.00 87 1015.6
20260507033045 62 360 6.0 13.0 0.00 0.00 0.00 87 1015.3
20260507032537 62 313 5.0 14.0 0.00 0.00 0.00 87 1015.4
20260507032037 62 333 8.0 14.0 0.00 0.00 0.00 87 1015.0
20260507031548 62 336 5.0 13.0 0.00 0.00 0.00 87 1014.8
20260507031039 63 355 8.0 13.0 0.00 0.00 0.00 87 1014.8
20260507030538 63 347 8.0 12.0 0.00 0.00 0.00 87 1014.7
20260507030051 63 352 5.0 12.0 0.00 0.00 0.00 87 1014.5
20260507025535 63 360 4.0 12.0 0.00 0.00 0.00 87 1014.5
20260507025038 63 329 8.0 12.0 0.00 0.00 0.00 87 1014.5
20260507024553 63 340 7.0 12.0 0.00 0.00 0.00 87 1014.3
20260507024036 63 351 5.0 13.0 0.00 0.00 0.00 86 1014.2
20260507023536 63 355 8.0 13.0 0.00 0.00 0.00 86 1013.9
20260507023052 63 20 7.0 13.0 0.00 0.00 0.00 86 1014.0
20260507022536 63 355 7.0 13.0 0.00 0.00 0.00 86 1014.1
20260507022035 63 348 7.0 13.0 0.00 0.00 0.00 86 1013.8
20260507021609 63 355 6.0 13.0 0.00 0.00 0.00 86 1013.8
20260507021036 63 5 9.0 13.0 0.00 0.00 0.00 86 1013.9
20260507020536 63 336 7.0 13.0 0.00 0.00 0.00 86 1013.8
20260507020106 63 346 6.0 13.0 0.00 0.00 0.00 86 1014.0
20260507015538 63 346 7.0 12.0 0.00 0.00 0.00 86 1013.9
20260507015036 63 15 5.0 13.0 0.00 0.00 0.00 86 1013.6
20260507014620 63 346 6.0 13.0 0.00 0.00 0.00 86 1013.6
20260507014036 63 355 6.0 13.0 0.00 0.00 0.00 86 1013.5
20260507013539 63 323 7.0 12.0 0.00 0.00 0.00 86 1013.3
20260507013051 63 340 6.0 12.0 0.00 0.00 0.00 86 1013.2
20260507012539 63 337 5.0 12.0 0.00 0.00 0.00 86 1013.0
20260507012039 63 330 7.0 12.0 0.00 0.00 0.00 86 1013.1
20260507011558 63 349 5.0 12.0 0.00 0.00 0.00 86 1012.8
20260507011035 63 355 6.0 13.0 0.00 0.00 0.00 86 1012.8
20260507010538 63 355 8.0 15.0 0.00 0.00 0.00 85 1012.7
20260507010049 63 350 7.0 15.0 0.00 0.00 0.00 85 1012.5
20260507005536 64 340 9.0 14.0 0.00 0.00 0.00 85 1012.4
20260507005036 64 338 8.0 13.0 0.00 0.00 0.00 85 1012.4
20260507004552 64 350 8.0 12.0 0.00 0.00 0.00 85 1012.5
20260507004037 64 350 5.0 14.0 0.00 0.00 0.00 85 1012.4
20260507003536 64 11 8.0 14.0 0.00 0.00 0.00 85 1012.4
20260507003049 65 325 9.0 14.0 0.00 0.00 0.00 84 1012.3
20260507002538 65 342 8.0 12.0 0.00 0.00 0.00 85 1012.2
20260507002039 65 342 7.0 14.0 0.00 0.00 0.00 84 1012.3
20260507001600 65 328 10.0 14.0 0.00 0.00 0.00 84 1012.1
20260507001039 65 334 8.0 12.0 0.00 0.00 0.00 84 1012.2
20260507000538 66 329 7.0 13.0 0.00 0.00 0.00 84 1012.1
20260506235538 66 337 8.0 15.0 0.00 0.00 0.00 83 1012.1
20260506235038 66 336 9.0 14.0 0.00 0.00 0.00 83 1012.0
20260506234605 67 332 8.0 13.0 0.00 0.00 0.00 83 1011.9
20260506234036 67 5 8.0 15.0 0.00 0.00 0.00 83 1011.8
20260506233540 67 319 8.0 15.0 0.00 0.00 0.00 82 1011.8
20260506233052 67 344 9.0 16.0 0.00 0.00 0.00 82 1011.7
20260506232539 68 330 8.0 16.0 0.00 0.00 0.00 82 1011.7
20260506232039 68 342 10.0 16.0 0.00 0.00 0.00 81 1011.6
20260506231548 68 333 10.0 15.0 0.00 0.00 0.00 81 1011.7
20260506231040 68 346 10.0 15.0 0.00 0.00 0.00 81 1011.8
20260506230538 68 355 9.0 15.0 0.00 0.00 0.00 81 1011.7
20260506230100 69 330 10.0 16.0 0.00 0.00 0.00 81 1011.7
20260506225537 69 319 8.0 16.0 0.00 0.00 0.00 81 1011.6
20260506225038 69 331 10.0 18.0 0.00 0.00 0.00 81 1011.4
20260506224550 69 317 8.0 18.0 0.00 0.00 0.00 81 1011.4
20260506224038 69 306 11.0 18.0 0.00 0.00 0.00 81 1011.4
20260506223536 69 313 5.0 14.0 0.00 0.00 0.00 81 1011.3
20260506223048 69 304 8.0 17.0 0.00 0.00 0.00 81 1011.3
20260506222536 70 360 9.0 17.0 0.00 0.00 0.00 81 1011.1
20260506222036 70 360 9.0 16.0 0.00 0.00 0.00 81 1011.2
20260506221600 70 355 11.0 17.0 0.00 0.00 0.00 81 1011.2
20260506221038 70 355 11.0 18.0 0.00 0.00 0.00 80 1011.1
20260506220540 70 322 10.0 18.0 0.00 0.00 0.00 81 1010.9
20260506220048 70 311 11.0 17.0 0.00 0.00 0.00 81 1010.9
20260506215538 70 351 11.0 16.0 0.00 0.00 0.00 81 1010.9
20260506215036 70 355 8.0 15.0 0.00 0.00 0.00 82 1010.8
20260506214551 70 312 10.0 15.0 0.00 0.00 0.00 82 1010.9
20260506214039 70 351 8.0 16.0 0.00 0.00 0.00 81 1010.9
20260506213539 71 325 8.0 16.0 0.00 0.00 0.00 82 1011.2
20260506213053 71 333 7.0 14.0 0.00 0.00 0.00 82 1011.2
20260506212538 72 323 8.0 16.0 0.00 0.00 0.00 81 1011.0
20260506212037 72 335 9.0 16.0 0.00 0.00 0.00 81 1011.0
20260506211553 73 308 10.0 15.0 0.00 0.00 0.00 82 1011.0
20260506211036 73 336 9.0 14.0 0.00 0.00 0.00 83 1010.8
20260506210536 74 311 8.0 13.0 0.00 0.00 0.00 83 1010.8
20260506210048 74 325 6.0 14.0 0.00 0.00 0.00 84 1010.7
20260506205536 74 317 8.0 14.0 0.00 0.00 0.00 84 1010.7
20260506205036 74 320 7.0 14.0 0.00 0.00 0.00 84 1010.7
20260506204547 75 323 7.0 12.0 0.00 0.00 0.00 83 1010.7
20260506204039 75 336 7.0 12.0 0.00 0.00 0.00 82 1010.8
20260506203536 75 346 8.0 13.0 0.00 0.00 0.00 82 1010.8
20260506203052 75 345 8.0 13.0 0.00 0.00 0.00 81 1010.8
20260506202539 75 344 5.0 10.0 0.00 0.00 0.00 82 1010.8
20260506202040 75 302 7.0 12.0 0.00 0.00 0.00 80 1010.9
20260506201547 76 352 7.0 12.0 0.00 0.00 0.00 80 1010.8